www.pogodaiklimat.ru

Погода и климат >> Архив погоды >> Россия >> Якутия >> Чурапча


ПОГОДА в Чурапче

  • Прогноз погоды в Чурапче
  • Монитор погоды в Чурапче
  • Климат города

АРХИВ ПОГОДЫ в Чурапче

Время (UTC), дата Ветер
(напр.,м/с)
 
Видим.   Явления Облачность Т
(С)
Тd
(С)
f
(%)
Тe
(С)
Тes
(С)
Комфортность P
(гПа)
Po
(гПа)
Тmin
(С)
Tmax
(С)
R
(мм)
S
(см)
03 16.03 СВ 1 50 км ясно -6.1 -7.6 89 -9 -3 1019.1 995.6
06 16.03 ЮВ 2 50 км ясно 0.0 -8.5 53 -3 -0 1017.3 994.3
09 16.03 ЮВ 2 50 км 3/0
[Ci fib]
-2.3 -11.9 48 -6 -6 1017.2 994.0
12 16.03 штиль 0 50 км 3/0
[Ci fib]
-8.9 -11.7 80 -9 -9 1017.8 994.1 +1.0
15 16.03 штиль 0 20 км 3/0
[Ci fib]
-13.6 -14.6 92 -14 -14 1019.4 995.2
18 16.03 штиль 0 20 км 8/0
[Ac trans]
-14.1 -14.8 94 -14 -14 1019.7 995.4
21 16.03 З 2 20 км 9/6 600 м
[Sc Ac trans]
-11.2 -12.2 92 -16 -16 1019.7 995.4
00 17.03 ЮВ 1 50 км 9/0
[Ac trans Ci]
-7.5 -8.9 90 -10 -8 1019.8 996.1 -14.9 34
03 17.03 Ю 2 20 км в посл. час снег 10/8 600 м
[St As op]
-3.5 -5.3 87 -8 -7 1020.1 996.8
06 17.03 ЮЗ 2 20 км {снег} 9/9 600 м
[Sc]
-2.1 -7.1 69 -6 -5 1021.2 998.0
09 17.03 штиль 0 20 км в посл. час снег 9/4 600 м
[Sc Ci fib]
-3.4 -6.6 78 -4 -4 1022.5 999.1
12 17.03 штиль 0 4000 м дымка {снег} 3/0
[Ci fib]
-13.1 -13.3 98 -13 -13 1025.1 1000.8 -1.3 0.3
15 17.03 штиль 0 10 км ясно -19.5 -20.6 91 -20 -20 1026.6 1001.7
18 17.03 штиль 0 10 км ясно -21.5 -22.7 90 -22 -22 1027.9 1002.7
21 17.03 штиль 0 10 км ясно -24.7 -26.5 85 -25 -25 1029.7 1004.2
00 18.03 Ю 1 50 км ясно -16.4 -17.3 93 -19 -16 1030.5 1005.8 -24.7 34
03 18.03 З 4 50 км 8/8 600 м
[Cu hum]
-5.3 -13.4 53 -11 -11 1029.7 1006.0
06 18.03 З 2 50 км 8/8 600 м
[Cu hum]
-4.3 -16.6 38 -8 -7 1028.6 1005.0
09 18.03 ЮЗ 1 50 км 3/0
[Ci fib]
-6.7 -17.1 43 -8 -8 1030.1 1006.3
12 18.03 штиль 0 20 км 1/0
[Ci fib]
-16.0 -20.4 69 -16 -16 1031.5 1006.8 -3.2
15 18.03 штиль 0 20 км ясно -21.6 -23.8 82 -22 -22 1031.7 1006.4
18 18.03 ЮЗ 1 20 км 3/0
[Ci sp]
-22.7 -24.6 84 -26 -26 1031.7 1006.3
21 18.03 Ю 1 20 км 10/0
[As op]
-18.4 -20.3 85 -21 -21 1030.7 1005.8
00 19.03 Ю 1 50 км 9/0
[Ac As]
-15.1 -17.9 79 -18 -17 1030.8 1006.2 -23.1 33
03 19.03 Ю 1 50 км 9/3 1000 м
[Cu hum Ac trans]
-4.8 -13.1 52 -7 -5 1028.5 1004.9
06 19.03 ЮВ 1 50 км 9/5 600 м
[Sc Ac trans]
-4.2 -12.6 52 -6 -5 1026.9 1003.4
09 19.03 Ю 2 50 км 8/3 600 м
[Sc Ac trans Ci fib]
-6.9 -17.5 43 -11 -11 1026.8 1003.0
12 19.03 штиль 0 20 км 8/0
[Ci fib]
-13.9 -18.9 66 -14 -14 1027.3 1002.9 -3.0
15 19.03 штиль 0 20 км 4/0
[Ci fib]
-15.1 -17.8 80 -15 -15 1026.9 1002.4
18 19.03 штиль 0 20 км 4/0
[Ci fib]
-21.7 -23.4 86 -22 -22 1027.0 1001.8
21 19.03 штиль 0 20 км 9/0
[Ci fib]
-21.1 -22.3 90 -21 -21 1027.6 1002.5
00 20.03 штиль 0 50 км 9/9 600 м
[Sc]
-18.4 -20.7 82 -18 -18 1027.3 1002.4 -22.0 33
03 20.03 ЮВ 1 50 км {снег} 8/5 600 м
[Cu hum Ci sp]
-7.6 -12.0 71 -10 -7 1025.5 1001.7
06 20.03 З 3 50 км {ливн. осадки, снег} 9/9 600 м
[Cb cap]
-4.5 -10.5 63 -10 -9 1024.5 1001.0
09 20.03 штиль 0 50 км 1/0
[Ci sp]
-5.6 -12.7 57 -6 -6 1024.6 1001.0
12 20.03 штиль 0 50 км ясно -13.3 -16.6 76 -13 -13 1024.7 1000.4 -3.6 0.0
15 20.03 штиль 0 20 км ясно -21.1 -22.1 92 -21 -21 1024.1 999.1
18 20.03 штиль 0 20 км ясно -23.9 -25.1 90 -24 -24 1023.4 998.1
21 20.03 штиль 0 2000 м дымка ясно -24.2 -25.3 91 -24 -24 1022.6 997.3
00 21.03 Ю 1 50 км ясно -19.9 -21.0 91 -23 -20 1021.9 997.0 -24.7 33
03 21.03 Ю 1 50 км ясно -5.6 -12.2 60 -8 -1 1019.7 996.2
06 21.03 С 1 50 км ясно +0.7 -9.7 46 -0 +3 1018.0 995.1
09 21.03 штиль 0 50 км ясно -2.2 -14.7 38 -2 -2 1018.1 994.9
12 21.03 З 1 50 км ясно -6.6 -12.6 62 -9 -9 1019.0 995.4 +1.7
15 21.03 штиль 0 20 км ясно -15.2 -18.5 76 -15 -15 1020.0 995.6
18 21.03 штиль 0 20 км ясно -20.0 -20.6 95 -20 -20 1020.4 995.6
21 21.03 Ю 1 20 км 3/0
[Ci fib]
-22.2 -22.9 94 -25 -25 1021.4 996.3
00 22.03 Ю 1 50 км 8/0
[Ci fib]
-15.7 -17.8 84 -18 -16 1020.9 996.5 -22.3 33
03 22.03 Ю 1 50 км 3/0
[Ci fib]
-4.1 -10.9 59 -6 0 1020.0 996.6
06 22.03 ЮЗ 2 50 км 8/0
[Ci fib]
-0.4 -9.7 49 -3 -1 1019.6 996.6
09 22.03 ЮЗ 1 50 км 3/0
[Ci sp]
-3.3 -13.2 46 -5 -5 1020.7 997.4
12 22.03 ЮЗ 1 50 км 1/0
[Ci fib]
-11.3 -13.4 84 -14 -14 1022.2 998.1 +0.7
15 22.03 Ю 1 20 км ясно -16.9 -17.2 98 -20 -20 1023.4 998.8
18 22.03 штиль 0 20 км ясно -20.1 -20.3 98 -20 -20 1023.8 998.9
21 22.03 штиль 0 50 км 3/0
[Ci fib]
-22.7 -23.0 97 -23 -23 1024.6 999.4

 

Местоположение метеостанции Чурапча (Якутия, Россия): широта 62.03 долгота 132.60 высота над уровнем моря 186 м.

В архиве по умолчанию представлена погода в Чурапче за последнюю неделю. Архивные данные за месяц целиком и за предыдущие месяцы, начиная с января 2011 года, Вы можете получить, выбрав интересующий диапазон дат из раскрывающегося списка и нажав кнопку "Ввод!".

Внимание! Время в таблицах - всемирное. Для получения местного времени необходимо прибавить поправку, которая в Чурапче равна 9 ч.

Смотрите также архив погоды в соседних городах и на ближайших метеорологических станциях:

Погода в Ытык-Кюёле (Якутия, Россия) (60 км)
Погода в Крест-Хальджае (Якутия, Россия) (128 км)
Погода в Амге (Якутия, Россия) (131 км)
Погода в Верхоянском Перевозе (Якутия, Россия) (147 км)
Погода в Охотском Перевозе (Якутия, Россия) (153 км)
Погода в Якутске (Якутия, Россия) (157 км)
Погода в Намцах (Якутия, Россия) (173 км)
Погода в Покровске (Якутия, Россия) (194 км)
Погода в Усть-Мае (Якутия, Россия) (210 км)
Погода в Тегюльте (Якутия, Россия) (222 км)

Пояснения к столбцам:

Ветер - указаны скорость ветра в м/с - средняя за 10 мин, порывы в срок и между сроками (в фигурных скобках) и направление, откуда дует ветер: С - северный, СВ - северо-восточный, В - восточный, ЮВ - юго-восточный, Ю - южный, ЮЗ - юго-западный, З - западный, СЗ - северо-западный.
Видимость - горизонтальная дальность видимости в метрах или километрах. При видимости от 1 до 10 км при отсутствии осадков обычно наблюдается дымка, при ухудшении видимости до 1 км и менее - туман. В сухую погоду видимость может ухудшаться дымом, пылью или мглою.
Явления - указаны атмосферные явления, наблюдавшиеся в срок или в последний час перед сроком; фигурными скобками обозначены явления, наблюдавшиеся между сроками (за 1-3 часа до срока); квадратными скобками обозначены град или гололедные отложения с указанием их диаметра в мм.
Облачность - указаны через наклонную черту общая и нижняя облачность в баллах и высота нижней границы облаков в метрах; квадратными скобками обозначены формы облаков: Ci - перистые, Cs - перисто-слоистые, Cc - перисто-кучевые, Ac - высококучевые, As - высокослоистые, Sc - слоисто-кучевые, Ns - слоисто-дождевые, Cu - кучевые, Cb - кучево-дождевые. Подробнее классификацию облаков см. в Атласе облаков (PDF).
T - Температура воздуха - температура, измеренная на высоте 2 м над землей.
Td - Температура точки росы - температура, при понижении до которой содержащийся в воздухе водяной пар достигнет насыщения.
f - Относительная влажность воздуха - влажноcть воздуха, измеренная на высоте 2 м над землей.
Te - Эффективная температура - температура, которую ощущает одетый по сезону человек в тени. Характеристика душности погоды. При расчете учитывается влияние влажности воздуха и скорости ветра на теплоощущения человека.
Tes - Эффективная температура на солнце - температура, которую ощущает человек, с поправкой на солнечный нагрев. Характеристика знойности погоды. Зависит от высоты солнца над горизонтом, облачности и скорости ветра. Ночью, в пасмурную погоду, а также при ветре 12 м/с и более поправка равна нулю.
P - Атмосферное давление - приведенное к уровню моря атмосферное давление.
Po - Атмосферное давление - измеренное на уровне метеостанции атмосферное давление.
Tmin - Минимальная температура - минимум температуры воздуха на высоте 2 м над землей.
Tmax - Максимальная температура - максимум температуры воздуха на высоте 2 м над землей.
R - Количество осадков - Количество выпавших осадков, мм. При наведении курсора мыши на число - период времени, за который выпало указанное количество осадков.
S - Снежный покров - Высота снежного покрова, см. При наведении курсора мыши на число - состояние снежного покрова и степень покрытия местности в баллах.